Regional Weather Roundup
Issued by NWS

Home | Current Version | Previous Version | Graphics & Text | Print | Product List | Glossary On
Versions: 1 2 3 4 5 6 7 8 9 10 11 12 13 14 15 16 17 18 19 20 21 22 23 24 25 26 27 28 29 30 31 32 33 34 35 36 37 38 39 40 41 42 43 44 45 46 47 48 49 50
000
ASUS43 KLOT 010900
RWRIL

ILLINOIS REGIONAL WEATHER ROUNDUP
NATIONAL WEATHER SERVICE CHICAGO/ROMEOVILLE IL
300 AM CST SUN FEB 01 2015

NOTE: "FAIR" INDICATES FEW OR NO CLOUDS BELOW 12,000 FEET WITH NO
SIGNIFICANT WEATHER AND/OR OBSTRUCTIONS TO VISIBILITY.

* THESE STATIONS ARE NOT UNDER NWS QUALITY CONTROL. THEY ALSO MAY NOT
  REPORT WEATHER SUCH AS PRECIPITATION OR FOG.

ILZ001-002-007-009-015-016-024-011000-
NORTHWEST ILLINOIS

CITY           SKY/WX    TMP DP  RH WIND       PRES   REMARKS
MOLINE         LGT SNOW  32  31  96 E9        29.94F VSB 3/4 WCI  24
STERLING*        N/A    N/A N/A N/A MISG        N/A
$$

ILZ003-004-008-010-011-017-018-011000-
NORTH CENTRAL ILLINOIS

CITY           SKY/WX    TMP DP  RH WIND       PRES   REMARKS
ROCKFORD       LGT SNOW  30  27  88 E13       30.06F VSB 1   WCI  20
$$

ILZ005-006-012>014-019>023-011000-
NORTHEAST ILLINOIS

CITY           SKY/WX    TMP DP  RH WIND       PRES   REMARKS
CHICAGO-OHARE  LGT SNOW  31  29  92 E9        30.07F VSB 3/4 WCI  23
CHICAGO-MIDWAY LGT SNOW  33  31  92 E10       30.08F VSB 1   WCI  25
AURORA         LGT SNOW  32  29  88 E10       30.05F VSB 1   WCI  24
WAUKEGAN       LGT SNOW  29  28  96 NE15G22   30.09F VSB 3/4 WCI  18
DUPAGE AIRPORT LGT SNOW  31  29  92 E10       30.05F FOG     WCI  22
WHEELING       LGT SNOW  31  29  92 E9        30.10F VSB 3/4 WCI  23
NORTHERLY ISL    N/A     31  30  96 E12         N/A  WCI  22
$$

LMZ740>746-011000-
SOUTHERN LAKE MICHIGAN

STATION/POSITION SKY/WX   TEMP    WIND        PRES    VSBY  WAVE
                          AIR SEA DIR/SP/G                  HT/PER
                          (F)     (DEG/KT/KT) (MB)    (MI)  (FT/S)
WAUKEGAN HARBOR            30      60/ 16/ 20   N/A
HARRISON CRIB              31      80/ 12/ 13   N/A
BURNHAM HARBOR             31      70/  9/  9   N/A
CALUMET HARBOR             31      70/ 10/ 13   N/A
MICHIGAN CITY              30      50/  7/  8   N/A
$$

ILZ025>027-034>036-040-047-049-050-058-095>099-011000-
WEST-CENTRAL ILLINOIS

CITY           SKY/WX    TMP DP  RH WIND       PRES   REMARKS
QUINCY         LGT SNOW  33  31  92 SE10      29.88F VSB 3/4 WCI  25
$$

ILZ028>032-037-038-041>044-048-051>054-059>061-011000-
CENTRAL ILLINOIS

CITY           SKY/WX    TMP DP  RH WIND       PRES   REMARKS
BLOOMINGTON    LGT SNOW  34  34 100 SE6       30.02F VSB 1   WCI  29
DECATUR        CLOUDY    36  29  75 E3        29.99F
PEORIA         LGT SNOW  34  31  88 E8        29.98F FOG     WCI  27
SPRINGFIELD    LGT SNOW  34  32  92 SE9       29.98F FOG     WCI  27
TAYLORVILLE    NOT AVBL
$$

ILZ033-039-045-046-055>057-062-063-011000-
EAST-CENTRAL ILLINOIS

CITY           SKY/WX    TMP DP  RH WIND       PRES   REMARKS
CHAMPAIGN      CLOUDY    33  31  92 NE12      30.00F WCI  24
MATTOON        CLOUDY    35  26  69 SE9       29.99F WCI  28
$$

ILZ079-100>102-011000-
SOUTHWEST ILLINOIS

CITY           SKY/WX    TMP DP  RH WIND       PRES   REMARKS
BELLEVILLE     LGT RAIN  38  29  69 SE9       29.91F WCI  31
CAHOKIA*       LGT RAIN  38  29  70 CALM      29.92F
$$

ILZ064>066-069>071-074>076-080>082-084>086-088>090-092>094-011000-
SOUTH-CENTRAL ILLINOIS

CITY           SKY/WX    TMP DP  RH WIND       PRES   REMARKS
CARBONDALE     CLOUDY    43  20  39 S9        29.94F
MT. VERNON     CLOUDY    37  25  60 E6        29.97F WCI  33
$$

ILZ067-068-072-073-078-083-087-091-011000-
SOUTHEAST ILLINOIS

CITY           SKY/WX    TMP DP  RH WIND       PRES   REMARKS
LAWRENCEVILLE  CLOUDY    36  26  67 E9        30.02F WCI  29
$$

ABBREVIATIONS USED IN REMARKS
   TC - TEMPERATURE IN CELSIUS
  WCI - WIND CHILL INDEX
   HX - HEAT INDEX
  VSB - VISIBILITY
$$



USA.gov is the U.S. government's official web portal to all federal, state and local government web resources and services.